Theta_e
324 326 329 329 329 328 327 327 328 328 331 328 333 332 330 332 329 328 330 331 329 329 330 329 330 329 329 329 329 328 328 328 331 334 335 335 335 336 337 336 334 330 337
325 325 331 328 328 328 329 327 326 328 331 329 329 328 329 328 328 327 328 329 328 328 329 329 329 327 326 327 327 327 327 327 329 331 330 330 333 333 334 334 334 330 337
325 324 326 330 327 328 327 326 326 326 328 328 328 330 330 327 328 328 327 327 328 328 328 329 326 325 323 323 325 325 326 326 327 326 328 321 323 333 333 331 331 333 333
324 323 324 328 327 326 326 325 325 326 325 328 327 327 327 327 327 327 327 326 326 328 327 326 326 324 323 321 320 323 323 321 323 325 318 319 319 327 331 330 329 336 330
321 325 325 330 326 327 326 324 325 324 325 326 325 325 327 325 326 326 326 326 326 326 326 325 324 323 321 320 319 318 320 320 321 319 316 317 317 327 327 333 331 332 334
319 323 325 328 326 327 325 324 322 322 324 324 324 325 324 325 325 324 324 325 324 324 325 324 323 322 320 319 319 317 317 320 319 317 317 321 321 330 329 327 329 329 331
319 323 322 329 326 326 324 324 321 320 322 322 322 321 320 322 321 322 322 323 323 323 323 322 322 321 319 317 318 317 319 320 312 313 319 318 320 325 328 326 327 327 327
315 322 322 327 327 326 324 323 321 319 319 321 320 319 319 318 319 321 320 321 322 321 321 319 320 319 318 316 315 315 317 318 312 311 316 314 321 326 326 325 327 328 325
313 319 320 320 323 327 324 323 321 318 317 318 318 319 317 314 314 315 318 320 319 320 320 318 316 317 316 314 312 312 315 317 308 308 315 313 321 321 321 322 324 326 326
311 314 317 320 319 319 319 323 321 317 314 316 317 316 317 313 310 310 314 317 317 316 317 316 314 311 312 311 309 309 312 314 304 307 311 313 321 320 319 318 318 320 321
312 311 313 315 316 318 319 319 320 318 314 315 315 315 313 309 309 309 312 311 311 311 312 312 312 311 309 311 309 309 312 301 301 304 308 315 319 319 318 317 316 317 320
309 310 312 312 313 314 318 316 314 314 309 309 311 309 305 301 304 304 310 310 309 310 309 310 310 311 312 304 304 310 302 299 300 301 306 312 315 318 317 315 316 316 318
310 311 312 312 313 312 311 313 313 311 309 306 306 305 304 302 302 302 304 305 303 310 304 308 306 305 302 301 302 301 301 300 299 300 308 310 311 314 317 317 316 315 316
310 311 311 312 311 311 310 309 310 310 309 306 306 305 302 302 301 300 301 302 301 303 301 301 300 301 301 301 301 300 300 299 299 300 306 310 310 312 314 315 316 315 316
308 311 311 311 310 310 308 308 307 307 307 307 306 305 304 302 301 302 301 301 301 301 301 301 301 301 300 300 300 300 299 299 299 299 300 312 310 310 312 314 314 314 314
308 310 311 311 311 310 308 307 306 306 306 306 306 305 305 303 301 301 301 301 300 301 301 300 300 299 299 299 299 300 299 299 300 300 300 303 312 311 311 313 314 315 314
307 309 309 310 311 310 308 307 308 307 307 305 306 306 304 303 301 300 300 300 301 301 301 300 300 300 299 301 299 299 299 299 299 299 300 300 305 313 312 312 313 314 315
307 307 309 312 311 311 309 308 308 308 307 306 305 305 305 304 303 302 301 301 302 301 300 299 299 299 299 299 298 298 298 299 299 299 299 300 300 304 310 313 313 314 314
307 307 307 309 308 309 309 308 308 308 307 307 306 305 305 305 304 302 302 302 302 301 300 300 299 299 297 298 299 298 298 297 298 301 298 299 300 302 301 311 314 313 313
307 306 307 308 307 307 308 308 306 306 306 306 305 305 306 305 305 302 302 302 302 301 300 300 299 299 298 298 301 300 298 299 299 299 299 301 300 302 301 301 301 305 314
306 306 305 306 306 306 305 304 303 302 303 304 305 306 306 305 305 303 302 302 302 301 300 300 299 298 298 299 297 297 299 300 300 299 299 299 299 300 301 302 301 301 302
306 306 306 306 306 306 305 304 303 303 303 304 305 305 306 305 305 304 303 302 302 301 301 300 299 298 298 299 295 294 292 295 296 297 297 298 298 299 300 301 301 301 300
304 305 306 306 306 306 306 305 304 304 304 303 304 305 306 306 305 305 303 303 302 302 301 300 300 299 297 298 298 295 290 290 292 296 295 297 297 297 298 299 300 300 299
305 306 307 308 307 307 306 304 303 302 301 303 304 306 306 307 306 306 305 304 302 302 301 301 303 300 299 297 298 300 296 295 290 289 295 296 297 298 297 298 299 299 299
308 307 307 308 308 307 306 305 304 303 304 306 307 308 307 307 307 306 305 304 303 302 302 301 301 300 300 298 298 297 296 295 294 292 291 292 295 296 297 298 298 298 299
308 309 308 308 308 308 307 306 305 304 304 305 305 306 307 308 308 307 307 304 303 303 302 302 301 300 300 299 299 298 298 296 294 293 293 294 293 296 297 299 298 298 298
Wind_Speed
9 8 10 9 10 10 7 9 9 10 11 12 14 16 13 16 13 15 15 16 15 15 15 16 17 17 18 18 17 17 16 15 16 17 19 21 20 21 22 23 19 15 21
14 11 12 9 10 8 8 10 8 11 12 11 13 13 13 12 14 14 14 13 15 16 15 17 18 17 17 17 16 16 15 15 15 18 19 20 20 19 19 19 18 14 18
16 11 9 10 9 8 9 9 8 8 10 11 12 12 14 12 14 14 14 15 15 15 16 17 17 16 16 15 15 14 14 15 16 13 19 10 10 19 17 17 16 16 16
13 13 10 11 11 7 9 8 8 8 8 11 10 11 12 13 13 13 13 14 13 14 15 14 15 15 16 16 14 13 12 13 14 16 8 9 8 13 16 16 14 17 14
10 14 11 13 10 11 9 8 9 7 8 9 9 9 11 10 12 12 12 13 12 13 13 14 14 14 15 15 14 12 11 12 13 10 7 6 5 9 12 17 11 16 18
10 13 11 12 10 10 9 8 8 7 6 8 8 10 10 10 11 11 11 11 12 12 13 13 13 13 14 15 14 12 10 12 10 7 6 8 6 15 13 13 15 15 16
11 12 9 12 10 10 8 8 7 6 5 7 6 8 7 8 7 9 9 9 10 10 11 11 11 12 13 14 13 11 9 12 6 6 7 6 7 11 15 12 14 14 15
8 13 10 11 10 10 8 8 7 6 5 5 5 6 6 6 5 7 7 7 9 8 9 9 9 9 11 12 12 10 9 12 7 4 6 6 11 14 12 13 14 13 11
8 11 11 8 8 10 9 9 7 6 5 4 4 4 3 4 3 3 6 7 7 7 8 7 7 8 8 9 9 7 9 12 6 4 8 5 9 9 9 9 10 12 12
8 6 9 11 10 8 7 10 8 6 5 5 5 3 4 5 5 4 2 5 6 6 6 5 6 5 5 4 5 6 8 11 4 5 5 4 8 7 8 7 6 9 9
6 6 7 7 8 8 9 8 9 8 6 6 6 7 7 5 7 7 5 2 2 2 3 3 4 5 5 6 4 4 7 3 4 3 3 4 6 5 5 5 6 6 7
8 6 6 6 6 5 5 8 7 7 6 6 7 7 5 2 4 2 4 5 5 4 5 5 6 8 8 4 4 6 2 2 1 1 2 3 4 6 3 3 3 3 5
9 6 6 5 6 6 3 5 3 3 3 2 3 2 2 2 3 4 3 3 3 7 4 6 6 4 5 3 4 3 2 3 2 1 5 3 3 6 6 5 4 3 4
9 9 8 8 5 5 3 3 4 4 3 3 3 3 1 2 3 2 1 1 1 3 3 3 2 4 4 6 6 4 4 4 2 2 5 6 3 5 6 7 6 5 6
10 9 9 8 7 5 5 4 3 3 4 4 4 5 3 3 3 3 3 3 3 2 2 3 3 4 5 6 5 5 5 5 5 3 2 9 7 6 7 7 6 5 5
10 10 10 9 7 7 5 5 3 3 3 3 3 5 7 5 3 4 4 3 3 3 3 2 3 3 4 5 6 6 6 5 5 4 3 5 11 9 9 9 8 7 7
8 10 10 10 10 7 7 5 4 3 2 2 4 6 6 5 6 5 4 3 4 3 2 2 5 4 4 4 6 6 5 6 4 6 5 4 6 13 13 12 12 11 10
9 10 10 9 9 9 6 5 4 5 4 4 4 5 7 7 6 5 3 3 3 2 2 2 3 4 4 4 4 5 5 5 6 7 6 5 5 5 11 14 14 14 13
9 10 10 9 9 9 8 5 6 7 5 5 5 4 6 7 7 5 4 4 5 3 4 4 4 4 3 4 5 5 5 5 6 5 6 6 7 6 4 13 17 16 15
9 9 10 9 9 9 6 5 4 4 5 4 5 5 7 5 7 5 4 5 4 3 4 4 5 4 4 4 4 6 6 6 6 6 6 5 5 7 7 7 4 6 17
9 8 10 10 9 6 4 4 4 4 3 3 5 7 7 6 7 7 5 6 5 5 6 6 4 5 3 3 3 4 6 10 11 8 5 5 6 6 7 7 5 4 6
9 9 8 9 9 6 5 4 4 4 5 5 5 6 8 7 7 6 7 6 6 4 6 6 5 3 3 4 3 2 5 6 3 5 5 5 7 5 6 7 7 7 6
10 10 10 9 9 7 8 4 2 2 2 1 2 3 5 8 8 8 8 6 7 6 5 6 6 7 4 3 6 4 3 4 3 4 5 5 6 5 5 6 7 7 7
10 9 10 10 9 8 9 6 7 5 5 4 4 5 6 8 8 8 8 7 7 5 6 6 6 6 5 5 2 6 5 4 2 6 4 3 6 6 7 5 6 6 7
10 9 9 10 9 9 9 8 6 6 4 4 4 6 6 7 8 8 8 8 7 5 6 7 7 6 5 5 5 3 4 5 5 6 8 5 3 4 5 6 6 5 7
9 9 9 10 8 9 9 9 10 9 7 5 5 5 5 4 5 7 8 7 7 7 7 7 7 8 7 6 5 6 6 4 4 5 7 8 7 6 5 7 7 6 6
Wind_Direction
123 119 133 111 94 84 79 69 54 58 60 56 51 56 50 49 53 56 59 44 42 53 43 49 51 41 33 43 46 45 42 35 36 49 41 44 39 43 39 37 34 29 34
129 120 134 120 104 102 85 74 63 60 52 57 54 56 60 51 57 52 52 48 47 48 44 54 45 40 37 36 38 44 47 39 27 44 39 34 36 35 35 43 36 42 34
118 124 125 127 114 88 91 78 75 64 54 57 61 63 61 53 55 53 51 42 42 52 45 43 49 41 39 39 35 40 39 31 26 45 40 22 35 37 38 41 37 31 39
134 137 118 129 118 99 96 93 78 73 66 67 63 58 57 57 54 48 48 55 34 46 52 41 48 41 38 36 37 33 32 29 27 41 53 31 11 28 32 39 34 40 46
106 103 125 124 127 111 106 107 92 88 75 66 67 60 61 53 53 52 46 45 42 45 46 45 42 41 37 35 37 39 35 17 40 32 53 39 352 33 37 39 50 42 47
110 108 126 136 131 118 114 110 96 93 69 80 65 54 56 40 51 45 40 41 47 40 39 43 45 40 39 36 39 39 33 23 29 49 43 38 7 36 43 43 35 42 42
121 124 136 137 140 122 120 112 106 102 77 93 66 69 56 48 51 43 34 39 44 42 39 31 42 39 38 36 39 42 25 356 52 64 67 30 27 31 38 41 32 30 27
129 125 143 141 147 132 135 129 124 120 115 92 93 87 63 55 42 42 36 30 36 39 38 37 31 44 41 37 34 29 16 10 20 37 77 42 28 32 38 31 35 26 44
142 135 135 153 156 146 148 145 140 138 139 139 131 105 81 69 39 39 26 32 23 22 29 32 34 31 39 38 35 18 356 351 338 358 66 23 31 32 38 33 21 33 35
137 152 152 152 161 164 155 158 153 151 159 164 148 147 189 215 197 213 280 25 19 11 10 21 16 15 6 23 24 342 328 319 8 33 59 23 13 38 44 27 22 22 20
146 167 159 161 166 164 150 157 162 169 171 177 181 201 226 227 216 198 129 104 331 340 333 340 327 314 291 274 251 298 316 303 355 46 81 28 2 26 44 36 28 16 24
169 184 168 165 156 141 143 156 179 180 185 194 198 193 221 241 98 100 177 190 210 238 245 248 255 264 278 261 237 271 272 297 330 21 89 36 346 348 22 23 30 359 9
174 173 174 167 160 151 197 159 162 165 173 181 192 201 303 341 238 206 185 216 202 238 240 231 246 254 261 300 299 266 248 281 280 277 145 131 317 327 327 337 348 342 356
169 172 176 164 174 170 175 159 186 160 165 180 192 170 143 267 276 311 241 166 203 235 288 287 293 302 277 267 241 255 270 239 240 257 179 180 219 290 310 308 318 330 315
170 168 172 168 171 194 181 180 207 187 160 201 172 173 187 262 265 279 243 217 228 235 248 267 287 282 293 297 311 289 263 271 241 227 163 200 215 248 274 284 286 294 308
169 164 166 169 185 182 187 189 194 198 206 185 186 189 191 203 227 235 243 224 227 231 232 271 272 294 291 295 296 299 290 273 278 257 220 208 222 234 251 264 270 270 274
178 161 165 172 167 194 191 195 177 219 203 208 206 214 211 209 214 234 227 247 225 237 238 286 281 277 276 282 274 273 273 258 256 259 237 212 207 228 238 244 254 259 265
172 166 165 169 165 176 195 197 191 192 206 213 230 220 218 212 211 230 252 254 241 208 206 269 276 287 284 278 282 279 281 272 252 243 238 223 212 199 234 240 245 251 255
178 165 162 164 175 173 186 194 191 209 202 208 217 228 224 216 212 206 223 240 235 210 206 220 252 236 261 282 283 282 282 274 267 261 245 231 219 212 206 225 239 244 248
181 171 162 163 175 183 174 183 204 201 215 213 216 219 225 217 212 212 221 231 236 223 225 228 230 246 228 248 283 283 276 267 250 239 236 233 225 216 214 217 258 239 246
171 177 170 165 177 166 174 176 193 207 216 219 214 227 228 221 216 211 212 225 229 213 220 221 227 233 274 251 295 286 270 253 247 233 218 217 232 229 210 208 213 208 241
177 178 185 177 178 178 171 182 174 184 215 200 206 214 212 220 221 214 207 219 225 226 227 228 230 253 244 209 226 324 309 325 336 220 201 205 223 236 233 213 211 220 226
185 182 183 187 180 176 181 160 189 225 312 9 263 226 220 213 214 216 219 210 217 214 218 215 209 213 226 275 212 180 304 266 339 283 238 214 213 219 238 231 220 215 220
193 176 175 182 183 186 176 181 183 188 210 218 214 226 231 227 224 217 215 217 223 220 218 216 213 205 177 223 280 230 223 188 234 321 324 267 241 229 226 238 229 223 221
174 180 173 175 185 187 179 179 188 207 210 223 234 229 222 214 214 217 212 213 218 218 230 219 220 208 197 191 198 244 250 243 221 226 280 285 306 259 232 226 226 222 221
165 169 167 174 186 183 182 185 193 205 215 228 240 241 238 230 226 224 220 216 216 217 219 224 224 214 209 212 207 215 217 219 213 216 255 265 252 255 235 232 225 219 219